User: anonymous   Login
Location: Mount Wilson Observatory
(34.2257°N, 118.0571°W)
Time: 09:01:28
(UTC-08:00)
Language:

ATLAS 3B CENTAUR R/B - Orbit

View from above orbital plane
View from above orbital plane
View from above satellite
View from above satellite

Ground track
Ground track

The orbit data is extracted from the following two-line orbital elements,

1 28118U 03057B   17018.70050363  .00042790  00000-0  66968-3 0  9996
2 28118  28.1203 159.5288 3149176 342.9505   8.5146  9.17486864275815
Epoch (UTC): 18 January 2017 16:48:43
Eccentricity: 0.3149176
inclination: 28.1203°
perigee height: 225 km
apogee height: 6295 km
right ascension of ascending node: 159.5288°
argument of perigee: 342.9505°
revolutions per day: 9.17486864
mean anomaly at epoch: 8.5146°
orbit number at epoch: 27581

The dashed part of the orbit path shows where the satellite is in the earth's shadow,  

DLR